IRNSS-1A

Last updated on Tue Oct 28 2025 00:02:49 GMT+0000 (Coordinated Universal Time)

1 39199U 13034A 25299.93933551 .00000089 00000+0 00000+0 0 9992 2 39199 35.2031 67.2252 0021083 183.2341 178.4465 1.00280230 45030
UTC large
Height (km)
Speed (km/s)
/
Latitude / Longitude
Inclination (degrees)
Orbital Period (minutes)
Azimuth
Elevation
Range (km)
Doppler Factor

Next 0 passes for location: London (51.5072 / 0.1276)

Sorry there are no passes over London.